EZS86YF LIBR-LFSB

Flight info

Callsign EZS86YF
Flight time 1h 54m
Altitude 38000
Route ENOXA DCT AIOSA DCT IPKIS DCT IXONA DCT RESIA DCT SOPER DCT ELMUR T718 TRA/N0335F180 T718 RIGVI
Aircraft A320/M-SDE3FGHIRWY/LB1

Departure

Time 2026-04-21 09:37
Airport Brindisi Airport (LIBR)

Arrival

Time 2026-04-21 11:31
Airport EuroAirport Basel–Mulhouse–Freiburg (LFSB)
Time Latitude Longitude Altitude Speed Heading
2026-04-21 09:13 40.65654 17.93846 44 ft 0 kts
2026-04-21 09:30 40.65655 17.93846 44 ft 1 kts
2026-04-21 09:31 40.65651 17.93863 39 ft 2 kts 158°
2026-04-21 09:31 40.65619 17.93908 44 ft 15 kts 116°
2026-04-21 09:31 40.65638 17.94042 43 ft 15 kts 50°
2026-04-21 09:31 40.65702 17.94146 44 ft 14 kts 52°
2026-04-21 09:32 40.65759 17.94242 44 ft 13 kts 53°
2026-04-21 09:32 40.65810 17.94331 43 ft 10 kts 53°
2026-04-21 09:32 40.65847 17.94395 43 ft 8 kts 52°
2026-04-21 09:32 40.65880 17.94451 42 ft 6 kts 52°
2026-04-21 09:33 40.65889 17.94466 42 ft 2 kts 52°
2026-04-21 09:33 40.65902 17.94488 41 ft 4 kts 52°
2026-04-21 09:33 40.65925 17.94528 39 ft 7 kts 52°
2026-04-21 09:33 40.65961 17.94541 39 ft 6 kts 321°
2026-04-21 09:34 40.65966 17.94535 39 ft 0 kts 317°
2026-04-21 09:36 40.65985 17.94511 39 ft 24 kts 316°
2026-04-21 09:36 40.66316 17.94104 42 ft 100 kts 317°
2026-04-21 09:36 40.66978 17.93297 44 ft 156 kts 317°
2026-04-21 09:36 40.67804 17.92286 578 ft 162 kts 314°
2026-04-21 09:37 40.68648 17.91288 1280 ft 165 kts 317°
2026-04-21 09:37 40.69541 17.90251 1793 ft 181 kts 317°
2026-04-21 09:37 40.70536 17.89081 2160 ft 203 kts 316°
2026-04-21 09:37 40.71637 17.87778 2537 ft 224 kts 316°
2026-04-21 09:38 40.72856 17.86327 3011 ft 248 kts 316°
2026-04-21 09:38 40.74166 17.84773 3882 ft 255 kts 316°
2026-04-21 09:38 40.75489 17.83205 4960 ft 256 kts 315°
2026-04-21 09:38 40.76943 17.81822 5971 ft 262 kts 332°
2026-04-21 09:39 40.78735 17.81226 6932 ft 272 kts 354°
2026-04-21 09:39 40.80632 17.81632 7839 ft 284 kts 17°
2026-04-21 09:39 40.82458 17.82695 8767 ft 288 kts 19°
2026-04-21 09:39 40.84349 17.83558 9621 ft 288 kts
2026-04-21 09:40 40.86309 17.83720 10383 ft 289 kts 351°
2026-04-21 09:40 40.88323 17.83135 10680 ft 305 kts 335°
2026-04-21 09:40 40.90340 17.82081 11235 ft 317 kts 334°
2026-04-21 09:40 40.92416 17.81005 11991 ft 322 kts 335°
2026-04-21 09:41 40.94521 17.79927 12782 ft 326 kts 335°
2026-04-21 09:41 40.96654 17.78842 13567 ft 330 kts 335°
2026-04-21 09:41 40.98810 17.77747 14274 ft 334 kts 335°
2026-04-21 09:41 41.00991 17.76643 14980 ft 337 kts 335°
2026-04-21 09:42 41.03187 17.75532 15689 ft 339 kts 335°
2026-04-21 09:42 41.05400 17.74411 16383 ft 342 kts 335°
2026-04-21 09:42 41.07635 17.73276 17072 ft 345 kts 334°
2026-04-21 09:42 41.09883 17.72129 17762 ft 348 kts 334°
2026-04-21 09:43 41.12150 17.70970 18435 ft 350 kts 334°
2026-04-21 09:43 41.14432 17.69803 19030 ft 353 kts 334°
2026-04-21 09:43 41.16729 17.68627 19626 ft 355 kts 334°
2026-04-21 09:43 41.19048 17.67441 20209 ft 358 kts 334°
2026-04-21 09:44 41.21374 17.66234 20782 ft 360 kts 333°
2026-04-21 09:44 41.23695 17.64952 21346 ft 362 kts 332°
2026-04-21 09:44 41.26011 17.63618 21888 ft 365 kts 332°
2026-04-21 09:44 41.28346 17.62247 22419 ft 368 kts 331°
2026-04-21 09:45 41.30698 17.60865 22963 ft 371 kts 332°
2026-04-21 09:45 41.33068 17.59482 23483 ft 374 kts 332°
2026-04-21 09:45 41.35463 17.58097 23940 ft 376 kts 332°
2026-04-21 09:45 41.37870 17.56716 24381 ft 378 kts 332°
2026-04-21 09:46 41.40294 17.55328 24828 ft 380 kts 332°
2026-04-21 09:46 41.42694 17.53949 25271 ft 382 kts 332°
2026-04-21 09:46 41.45140 17.52543 25691 ft 384 kts 332°
2026-04-21 09:46 41.47600 17.51130 26115 ft 386 kts 332°
2026-04-21 09:47 41.50070 17.49707 26521 ft 388 kts 332°
2026-04-21 09:47 41.52552 17.48273 26941 ft 390 kts 331°
2026-04-21 09:47 41.55047 17.46829 27346 ft 392 kts 331°
2026-04-21 09:47 41.57557 17.45377 27746 ft 394 kts 331°
2026-04-21 09:48 41.60077 17.43917 28153 ft 396 kts 331°
2026-04-21 09:48 41.62610 17.42446 28540 ft 398 kts 331°
2026-04-21 09:48 41.65161 17.40968 28931 ft 400 kts 331°
2026-04-21 09:48 41.67721 17.39483 29329 ft 402 kts 331°
2026-04-21 09:49 41.70292 17.37988 29763 ft 403 kts 331°
2026-04-21 09:49 41.72874 17.36484 30132 ft 405 kts 331°
2026-04-21 09:49 41.75465 17.34975 30445 ft 407 kts 331°
2026-04-21 09:49 41.78061 17.33465 30724 ft 408 kts 331°
2026-04-21 09:50 41.80675 17.31947 31009 ft 410 kts 331°
2026-04-21 09:50 41.81524 17.31453 31105 ft 411 kts 331°
2026-04-21 09:50 41.88558 17.27354 31990 ft 411 kts 331°
2026-04-21 09:51 41.91169 17.25799 32402 ft 409 kts 329°
2026-04-21 09:51 41.93593 17.23867 32821 ft 402 kts 320°
2026-04-21 09:51 41.95748 17.21510 33206 ft 399 kts 316°
2026-04-21 09:51 41.97851 17.19082 33605 ft 398 kts 316°
2026-04-21 09:52 41.99954 17.16667 33990 ft 397 kts 316°
2026-04-21 09:52 42.02055 17.14261 34314 ft 397 kts 316°
2026-04-21 09:52 42.04156 17.11857 34617 ft 396 kts 316°
2026-04-21 09:52 42.06250 17.09454 34901 ft 396 kts 316°
2026-04-21 09:53 42.08348 17.07040 35178 ft 396 kts 316°
2026-04-21 09:53 42.10444 17.04624 35437 ft 396 kts 316°
2026-04-21 09:53 42.12536 17.02212 35696 ft 397 kts 316°
2026-04-21 09:53 42.14636 16.99790 35958 ft 397 kts 316°
2026-04-21 09:54 42.16732 16.97377 36231 ft 397 kts 316°
2026-04-21 09:54 42.18831 16.94957 36460 ft 397 kts 316°
2026-04-21 09:54 42.20903 16.92561 36693 ft 397 kts 316°
2026-04-21 09:54 42.23001 16.90132 36939 ft 397 kts 316°
2026-04-21 09:55 42.25098 16.87701 37179 ft 397 kts 316°
2026-04-21 09:55 42.27193 16.85264 37405 ft 397 kts 315°
2026-04-21 09:55 42.29284 16.82828 37632 ft 397 kts 315°
2026-04-21 09:55 42.31377 16.80386 37851 ft 397 kts 315°
2026-04-21 09:56 42.33472 16.77947 37962 ft 398 kts 315°
2026-04-21 09:56 42.35569 16.75511 37973 ft 397 kts 316°
2026-04-21 09:56 42.39757 16.70641 37972 ft 397 kts 315°
2026-04-21 09:57 42.43941 16.65748 37972 ft 398 kts 316°
2026-04-21 09:57 42.48129 16.60848 37972 ft 398 kts 316°
2026-04-21 09:58 42.52320 16.55934 37973 ft 398 kts 316°
2026-04-21 09:58 42.56508 16.51024 37971 ft 398 kts 316°
2026-04-21 09:59 42.60697 16.46095 37972 ft 398 kts 315°
2026-04-21 09:59 42.64878 16.41160 38002 ft 398 kts 315°
2026-04-21 10:00 42.69066 16.36220 37992 ft 398 kts 316°
2026-04-21 10:00 42.73250 16.31277 37977 ft 398 kts 315°
2026-04-21 10:01 42.77428 16.26313 37976 ft 399 kts 315°
2026-04-21 10:01 42.81603 16.21340 37974 ft 399 kts 315°
2026-04-21 10:02 42.87851 16.13910 37981 ft 399 kts 315°
2026-04-21 10:03 42.92031 16.08922 37997 ft 400 kts 315°
2026-04-21 10:03 42.96215 16.03920 37990 ft 400 kts 315°
2026-04-21 10:04 43.00406 15.98901 37987 ft 400 kts 315°
2026-04-21 10:04 43.04588 15.93894 37994 ft 399 kts 315°
2026-04-21 10:05 43.08753 15.88882 37997 ft 399 kts 315°
2026-04-21 10:05 43.12914 15.83872 38017 ft 398 kts 315°
2026-04-21 10:06 43.17068 15.78859 38003 ft 398 kts 315°
2026-04-21 10:06 43.21216 15.73846 38000 ft 398 kts 315°
2026-04-21 10:07 43.25331 15.68853 37996 ft 397 kts 315°
2026-04-21 10:07 43.29460 15.63835 37992 ft 397 kts 315°
2026-04-21 10:08 43.33598 15.58805 37995 ft 397 kts 315°
2026-04-21 10:08 43.37737 15.53765 38003 ft 398 kts 315°
2026-04-21 10:09 43.41877 15.48714 37997 ft 398 kts 315°
2026-04-21 10:09 43.46016 15.43652 37994 ft 398 kts 315°
2026-04-21 10:10 43.50155 15.38580 37993 ft 398 kts 315°
2026-04-21 10:10 43.54294 15.33508 37997 ft 399 kts 315°
2026-04-21 10:11 43.58435 15.28423 38003 ft 399 kts 315°
2026-04-21 10:11 43.62571 15.23323 38005 ft 399 kts 315°
2026-04-21 10:12 43.66705 15.18206 38006 ft 399 kts 315°
2026-04-21 10:12 43.70843 15.13086 38003 ft 399 kts 315°
2026-04-21 10:13 43.74983 15.07959 38004 ft 399 kts 315°
2026-04-21 10:13 43.79119 15.02819 38007 ft 399 kts 315°
2026-04-21 10:14 43.83250 14.97674 38009 ft 400 kts 315°
2026-04-21 10:14 43.86688 14.93395 38010 ft 400 kts 315°
2026-04-21 10:15 43.90821 14.88247 38009 ft 399 kts 315°
2026-04-21 10:15 43.95615 14.82242 38012 ft 399 kts 315°
2026-04-21 10:16 43.99065 14.77913 38012 ft 399 kts 315°
2026-04-21 10:16 44.03183 14.72738 38013 ft 399 kts 315°
2026-04-21 10:17 44.07298 14.67561 38027 ft 399 kts 314°
2026-04-21 10:17 44.11384 14.62413 38015 ft 399 kts 314°
2026-04-21 10:18 44.15493 14.57229 38004 ft 399 kts 314°
2026-04-21 10:18 44.19597 14.52033 38007 ft 399 kts 314°
2026-04-21 10:19 44.23693 14.46825 38009 ft 399 kts 314°
2026-04-21 10:19 44.27795 14.41612 38024 ft 399 kts 314°
2026-04-21 10:20 44.31898 14.36400 38018 ft 399 kts 314°
2026-04-21 10:20 44.35994 14.31168 38011 ft 399 kts 314°
2026-04-21 10:21 44.39761 14.25530 38002 ft 397 kts 309°
2026-04-21 10:21 44.43452 14.19779 38007 ft 397 kts 309°
2026-04-21 10:22 44.47113 14.14068 38002 ft 397 kts 309°
2026-04-21 10:22 44.50794 14.08312 38004 ft 397 kts 309°
2026-04-21 10:23 44.54472 14.02546 38022 ft 397 kts 309°
2026-04-21 10:23 44.58147 13.96762 38015 ft 397 kts 309°
2026-04-21 10:24 44.61822 13.90976 38013 ft 397 kts 309°
2026-04-21 10:24 44.65494 13.85188 38011 ft 397 kts 309°
2026-04-21 10:25 44.69157 13.79379 38010 ft 397 kts 309°
2026-04-21 10:25 44.72817 13.73568 38000 ft 397 kts 309°
2026-04-21 10:26 44.76477 13.67760 38028 ft 397 kts 309°
2026-04-21 10:26 44.80135 13.61950 38020 ft 397 kts 309°
2026-04-21 10:27 44.83794 13.56124 38012 ft 397 kts 309°
2026-04-21 10:27 44.87046 13.49873 38008 ft 395 kts 303°
2026-04-21 10:28 44.90181 13.43512 37994 ft 395 kts 303°
2026-04-21 10:28 44.93316 13.37157 38003 ft 394 kts 303°
2026-04-21 10:29 44.96423 13.30837 38006 ft 394 kts 303°
2026-04-21 10:29 44.99539 13.24473 38012 ft 394 kts 303°
2026-04-21 10:30 45.02654 13.18093 38031 ft 394 kts 303°
2026-04-21 10:30 45.05771 13.11712 38028 ft 394 kts 303°
2026-04-21 10:31 45.08888 13.05322 38021 ft 394 kts 303°
2026-04-21 10:31 45.11992 12.98932 38018 ft 394 kts 303°
2026-04-21 10:32 45.15097 12.92532 38017 ft 394 kts 303°
2026-04-21 10:32 45.18192 12.86118 38018 ft 394 kts 303°
2026-04-21 10:33 45.21291 12.79717 38010 ft 394 kts 303°
2026-04-21 10:33 45.24387 12.73313 38020 ft 393 kts 303°
2026-04-21 10:34 45.27469 12.66902 38043 ft 393 kts 303°
2026-04-21 10:34 45.30541 12.60476 38035 ft 393 kts 303°
2026-04-21 10:35 45.33612 12.54047 38029 ft 393 kts 303°
2026-04-21 10:35 45.36662 12.47652 38020 ft 393 kts 303°
2026-04-21 10:36 45.39749 12.41180 38017 ft 393 kts 303°
2026-04-21 10:36 45.42789 12.34787 38022 ft 392 kts 303°
2026-04-21 10:37 45.45847 12.28343 38016 ft 392 kts 303°
2026-04-21 10:37 45.48895 12.21908 38014 ft 392 kts 303°
2026-04-21 10:38 45.51945 12.15443 38017 ft 392 kts 303°
2026-04-21 10:38 45.54985 12.08982 38029 ft 392 kts 303°
2026-04-21 10:39 45.58021 12.02529 38012 ft 392 kts 303°
2026-04-21 10:39 45.61055 11.96062 38010 ft 392 kts 303°
2026-04-21 10:40 45.64079 11.89581 38012 ft 392 kts 302°
2026-04-21 10:40 45.67080 11.83137 38017 ft 392 kts 302°
2026-04-21 10:41 45.70102 11.76643 38027 ft 392 kts 302°
2026-04-21 10:41 45.73125 11.70158 38012 ft 392 kts 302°
2026-04-21 10:42 45.76139 11.63661 38027 ft 392 kts 302°
2026-04-21 10:42 45.79142 11.57155 38030 ft 392 kts 302°
2026-04-21 10:43 45.82155 11.50637 38018 ft 392 kts 303°
2026-04-21 10:43 45.85170 11.44102 38013 ft 393 kts 302°
2026-04-21 10:44 45.88173 11.37553 38006 ft 393 kts 302°
2026-04-21 10:44 45.91170 11.31003 38003 ft 393 kts 302°
2026-04-21 10:45 45.94170 11.24435 37985 ft 393 kts 302°
2026-04-21 10:45 45.97162 11.17870 37984 ft 393 kts 302°
2026-04-21 10:46 46.00157 11.11289 37985 ft 393 kts 302°
2026-04-21 10:46 46.03148 11.04694 37994 ft 393 kts 302°
2026-04-21 10:47 46.06134 10.98103 38011 ft 393 kts 302°
2026-04-21 10:47 46.09095 10.91556 38002 ft 393 kts 302°
2026-04-21 10:48 46.12070 10.84954 37994 ft 393 kts 302°
2026-04-21 10:48 46.15045 10.78327 37968 ft 394 kts 302°
2026-04-21 10:49 46.18017 10.71695 37968 ft 393 kts 302°
2026-04-21 10:49 46.20991 10.65060 37966 ft 394 kts 302°
2026-04-21 10:50 46.23966 10.58407 37959 ft 394 kts 302°
2026-04-21 10:50 46.26937 10.51734 37968 ft 395 kts 302°
2026-04-21 10:51 46.29900 10.45054 37969 ft 395 kts 302°
2026-04-21 10:51 46.32863 10.38373 37980 ft 394 kts 302°
2026-04-21 10:52 46.35812 10.31716 37990 ft 392 kts 302°
2026-04-21 10:52 46.38741 10.25066 37988 ft 391 kts 302°
2026-04-21 10:53 46.41661 10.18425 38001 ft 390 kts 302°
2026-04-21 10:53 46.44576 10.11788 38004 ft 390 kts 302°
2026-04-21 10:54 46.47482 10.05151 37991 ft 389 kts 302°
2026-04-21 10:54 46.50242 9.98363 37996 ft 391 kts 298°
2026-04-21 10:55 46.52805 9.91461 37998 ft 392 kts 298°
2026-04-21 10:55 46.55390 9.84497 38015 ft 392 kts 298°
2026-04-21 10:56 46.58008 9.77553 38008 ft 392 kts 298°
2026-04-21 10:56 46.60638 9.70595 37982 ft 392 kts 298°
2026-04-21 10:57 46.63271 9.63627 37994 ft 393 kts 298°
2026-04-21 10:57 46.65889 9.56642 38006 ft 393 kts 298°
2026-04-21 10:58 46.68495 9.49658 38011 ft 392 kts 298°
2026-04-21 10:58 46.71110 9.42679 38019 ft 392 kts 298°
2026-04-21 10:59 46.73713 9.35699 38002 ft 392 kts 298°
2026-04-21 10:59 46.76290 9.28767 38007 ft 391 kts 298°
2026-04-21 11:00 46.78890 9.21766 38009 ft 392 kts 298°
2026-04-21 11:00 46.81477 9.14764 38042 ft 392 kts 298°
2026-04-21 11:01 46.84071 9.07718 38026 ft 395 kts 298°
2026-04-21 11:01 46.86797 9.00748 38023 ft 396 kts 307°
2026-04-21 11:02 46.90972 8.95537 38021 ft 401 kts 330°
2026-04-21 11:02 46.93588 8.94020 37766 ft 408 kts 342°
2026-04-21 11:02 46.96406 8.93394 37508 ft 412 kts 350°
2026-04-21 11:02 46.98337 8.93145 37316 ft 412 kts 350°
2026-04-21 11:03 47.01155 8.92774 37061 ft 412 kts 349°
2026-04-21 11:03 47.04004 8.92392 36831 ft 411 kts 349°
2026-04-21 11:03 47.06846 8.92003 36581 ft 410 kts 349°
2026-04-21 11:03 47.09685 8.91609 36323 ft 409 kts 349°
2026-04-21 11:04 47.12502 8.91174 36088 ft 405 kts 345°
2026-04-21 11:04 47.15225 8.90265 35844 ft 399 kts 337°
2026-04-21 11:04 47.17789 8.88796 35601 ft 392 kts 329°
2026-04-21 11:04 47.20151 8.86868 35362 ft 386 kts 325°
2026-04-21 11:05 47.22450 8.84851 35126 ft 383 kts 325°
2026-04-21 11:05 47.24727 8.82852 34889 ft 380 kts 324°
2026-04-21 11:05 47.26989 8.80866 34686 ft 377 kts 324°
2026-04-21 11:05 47.29232 8.78896 34447 ft 374 kts 324°
2026-04-21 11:06 47.31454 8.76948 33998 ft 370 kts 324°
2026-04-21 11:06 47.33655 8.75017 33466 ft 365 kts 324°
2026-04-21 11:06 47.35826 8.73110 32957 ft 360 kts 324°
2026-04-21 11:06 47.37967 8.71225 32484 ft 355 kts 324°
2026-04-21 11:07 47.40072 8.69370 32009 ft 351 kts 324°
2026-04-21 11:07 47.42156 8.67531 31531 ft 346 kts 324°
2026-04-21 11:07 47.44211 8.65717 31079 ft 342 kts 323°
2026-04-21 11:07 47.46238 8.63924 30633 ft 337 kts 323°
2026-04-21 11:08 47.48240 8.62151 30227 ft 333 kts 323°
2026-04-21 11:08 47.50213 8.60403 29697 ft 329 kts 323°
2026-04-21 11:08 47.52165 8.58673 29284 ft 323 kts 323°
2026-04-21 11:08 47.54076 8.56974 28879 ft 317 kts 323°
2026-04-21 11:09 47.55927 8.55327 28501 ft 312 kts 323°
2026-04-21 11:09 47.57772 8.53686 28112 ft 307 kts 323°
2026-04-21 11:09 47.59584 8.52073 27738 ft 302 kts 323°
2026-04-21 11:09 47.61373 8.50479 27372 ft 297 kts 323°
2026-04-21 11:10 47.63127 8.48917 27002 ft 294 kts 323°
2026-04-21 11:10 47.64880 8.47354 26647 ft 293 kts 323°
2026-04-21 11:10 47.66622 8.45795 26283 ft 292 kts 323°
2026-04-21 11:10 47.68277 8.44098 26003 ft 285 kts 316°
2026-04-21 11:11 47.69681 8.42048 25867 ft 283 kts 308°
2026-04-21 11:11 47.70859 8.39716 25537 ft 281 kts 304°
2026-04-21 11:11 47.72006 8.37351 25138 ft 283 kts 304°
2026-04-21 11:11 47.73154 8.34979 24729 ft 283 kts 304°
2026-04-21 11:12 47.74299 8.32609 24318 ft 282 kts 304°
2026-04-21 11:12 47.75440 8.30235 23902 ft 282 kts 304°
2026-04-21 11:12 47.76574 8.27871 23467 ft 281 kts 304°
2026-04-21 11:12 47.77708 8.25511 23028 ft 280 kts 304°
2026-04-21 11:13 47.78840 8.23152 22615 ft 280 kts 304°
2026-04-21 11:13 47.79972 8.20793 22212 ft 280 kts 304°
2026-04-21 11:13 47.81104 8.18432 21813 ft 280 kts 304°
2026-04-21 11:13 47.82233 8.16075 21419 ft 280 kts 304°
2026-04-21 11:14 47.83367 8.13710 21023 ft 280 kts 304°
2026-04-21 11:14 47.84497 8.11347 20635 ft 280 kts 304°
2026-04-21 11:14 47.85626 8.08984 20255 ft 280 kts 304°
2026-04-21 11:14 47.86754 8.06620 19872 ft 280 kts 304°
2026-04-21 11:15 47.87866 8.04284 19500 ft 280 kts 304°
2026-04-21 11:15 47.88995 8.01912 19124 ft 281 kts 304°
2026-04-21 11:15 47.90143 7.99499 18740 ft 282 kts 304°
2026-04-21 11:15 47.91274 7.97119 18359 ft 282 kts 304°
2026-04-21 11:16 47.92409 7.94725 17957 ft 283 kts 304°
2026-04-21 11:16 47.93544 7.92329 17580 ft 283 kts 304°
2026-04-21 11:16 47.94663 7.89959 17219 ft 283 kts 304°
2026-04-21 11:16 47.95793 7.87564 16862 ft 282 kts 305°
2026-04-21 11:17 47.96939 7.85133 16492 ft 283 kts 305°
2026-04-21 11:17 47.98071 7.82732 16124 ft 283 kts 305°
2026-04-21 11:17 47.99191 7.80354 15766 ft 284 kts 305°
2026-04-21 11:17 48.00326 7.77939 15412 ft 285 kts 305°
2026-04-21 11:18 48.01464 7.75511 15046 ft 285 kts 304°
2026-04-21 11:18 48.02603 7.73081 14688 ft 286 kts 304°
2026-04-21 11:18 48.03748 7.70641 14317 ft 287 kts 305°
2026-04-21 11:18 48.04898 7.68197 13952 ft 288 kts 304°
2026-04-21 11:19 48.06054 7.65742 13467 ft 290 kts 304°
2026-04-21 11:19 48.07218 7.63268 13026 ft 291 kts 304°
2026-04-21 11:19 48.08381 7.60791 12586 ft 291 kts 304°
2026-04-21 11:19 48.09524 7.58284 12141 ft 292 kts 299°
2026-04-21 11:20 48.10179 7.55441 11694 ft 291 kts 277°
2026-04-21 11:20 48.10040 7.52422 11169 ft 295 kts 254°
2026-04-21 11:20 48.09086 7.49693 10658 ft 301 kts 232°
2026-04-21 11:20 48.07463 7.47710 10144 ft 306 kts 208°
2026-04-21 11:21 48.05452 7.46601 9577 ft 309 kts 199°
2026-04-21 11:21 48.03423 7.45628 9013 ft 302 kts 198°
2026-04-21 11:21 48.01460 7.44695 8449 ft 291 kts 199°
2026-04-21 11:21 47.99561 7.43790 7903 ft 282 kts 198°
2026-04-21 11:22 47.97719 7.42908 7367 ft 274 kts 197°
2026-04-21 11:22 47.95924 7.42045 6841 ft 267 kts 196°
2026-04-21 11:22 47.94173 7.41204 6305 ft 262 kts 195°
2026-04-21 11:22 47.92455 7.40380 5750 ft 257 kts 196°
2026-04-21 11:23 47.90784 7.39581 5216 ft 254 kts 195°
2026-04-21 11:23 47.89091 7.38775 4657 ft 250 kts 195°
2026-04-21 11:23 47.87461 7.37998 4138 ft 247 kts 197°
2026-04-21 11:23 47.85853 7.37228 4015 ft 244 kts 197°
2026-04-21 11:24 47.84214 7.36509 4020 ft 242 kts 187°
2026-04-21 11:24 47.82597 7.36566 4012 ft 228 kts 162°
2026-04-21 11:24 47.81148 7.37409 4003 ft 221 kts 150°
2026-04-21 11:24 47.79751 7.38367 4007 ft 221 kts 151°
2026-04-21 11:25 47.78347 7.39328 4004 ft 222 kts 150°
2026-04-21 11:25 47.76961 7.40288 4003 ft 220 kts 150°
2026-04-21 11:25 47.75576 7.41251 3992 ft 219 kts 151°
2026-04-21 11:25 47.74187 7.42229 3692 ft 223 kts 151°
2026-04-21 11:26 47.72773 7.43233 3368 ft 228 kts 152°
2026-04-21 11:26 47.71330 7.44257 3027 ft 231 kts 152°
2026-04-21 11:26 47.69903 7.45268 2702 ft 223 kts 153°
2026-04-21 11:26 47.68528 7.46236 2377 ft 215 kts 152°
2026-04-21 11:27 47.67216 7.47157 2100 ft 202 kts 152°
2026-04-21 11:27 47.65974 7.48027 1842 ft 193 kts 152°
2026-04-21 11:27 47.64815 7.48839 1783 ft 174 kts 152°
2026-04-21 11:27 47.63831 7.49695 1779 ft 157 kts 130°
2026-04-21 11:28 47.63185 7.50933 1759 ft 148 kts 120°
2026-04-21 11:28 47.62639 7.52207 1716 ft 146 kts 117°
2026-04-21 11:28 47.62320 7.53579 1714 ft 141 kts 79°
2026-04-21 11:28 47.62479 7.54984 1658 ft 137 kts 77°
2026-04-21 11:29 47.62645 7.56383 1657 ft 140 kts 77°
2026-04-21 11:29 47.62817 7.57809 1716 ft 141 kts 81°
2026-04-21 11:29 47.62660 7.59242 1717 ft 146 kts 121°
2026-04-21 11:29 47.61872 7.60105 1727 ft 147 kts 166°
2026-04-21 11:30 47.60884 7.59837 1670 ft 148 kts 220°
2026-04-21 11:30 47.60148 7.58782 1595 ft 148 kts 231°
2026-04-21 11:30 47.59674 7.57437 1468 ft 149 kts 259°
2026-04-21 11:30 47.59462 7.55952 1241 ft 150 kts 257°
2026-04-21 11:31 47.59224 7.54457 1020 ft 148 kts 259°
2026-04-21 11:31 47.59001 7.53001 902 ft 134 kts 257°
2026-04-21 11:31 47.58872 7.52169 901 ft 51 kts 258°
2026-04-21 11:31 47.58811 7.51763 897 ft 14 kts 267°
2026-04-21 11:32 47.58853 7.51686 900 ft 9 kts 342°
2026-04-21 11:32 47.58902 7.51669 902 ft 6 kts 357°
2026-04-21 11:32 47.58952 7.51687 902 ft 10 kts 28°
2026-04-21 11:32 47.59034 7.51803 903 ft 22 kts 46°
2026-04-21 11:33 47.59163 7.51994 900 ft 28 kts 44°
2026-04-21 11:33 47.59284 7.52216 900 ft 28 kts 65°
2026-04-21 11:33 47.59368 7.52482 901 ft 29 kts 64°
2026-04-21 11:33 47.59450 7.52739 903 ft 20 kts 64°
2026-04-21 11:34 47.59508 7.52909 903 ft 14 kts 58°
2026-04-21 11:34 47.59594 7.52894 903 ft 15 kts 334°
2026-04-21 11:34 47.59672 7.52948 903 ft 15 kts 64°
2026-04-21 11:34 47.59732 7.53027 903 ft 11 kts
2026-04-21 11:35 47.59807 7.53070 900 ft 13 kts 22°
2026-04-21 11:35 47.59857 7.53112 900 ft 4 kts 32°
2026-04-21 11:35 47.59863 7.53117 900 ft 0 kts 32°